Date_Time,Julian_Date,Latitude,Longitude,Instrument_Depth,U,V,Speed,Direction
(yyyy-mm-dd hh:mn:ss UTC),(JD),(+ deg. North),(+ deg. East),(m),(cm/s),(cm/s),(cm/s),(deg True)
1984-07-18 09:00:00 UTC,2445899.875000,25.7150,-84.8850,0172,-0.08,1.15,1.1528,356.0206
1984-07-18 09:30:00 UTC,2445899.895833,25.7150,-84.8850,0172,-0.64,0.33,0.7201,297.2768
1984-07-18 10:00:00 UTC,2445899.916667,25.7150,-84.8850,0172,0.29,-0.22,0.3640,127.1847
1984-07-18 10:30:00 UTC,2445899.937500,25.7150,-84.8850,0172,1.15,-1.72,2.0690,146.2331
1984-07-18 11:00:00 UTC,2445899.958333,25.7150,-84.8850,0172,-0.34,-1.93,1.9597,189.9911
1984-07-18 11:30:00 UTC,2445899.979167,25.7150,-84.8850,0172,-1.31,-2.80,3.0913,205.0729
1984-07-18 12:00:00 UTC,2445900.000000,25.7150,-84.8850,0172,-3.40,-2.45,4.1908,234.2239
1984-07-18 12:30:00 UTC,2445900.020833,25.7150,-84.8850,0172,-5.06,-3.83,6.3461,232.8773
1984-07-18 13:00:00 UTC,2445900.041667,25.7150,-84.8850,0172,-7.16,-6.53,9.6905,227.6348
1984-07-18 13:30:00 UTC,2445900.062500,25.7150,-84.8850,0172,-9.06,-7.65,11.8577,229.8232
1984-07-18 14:00:00 UTC,2445900.083333,25.7150,-84.8850,0172,-11.01,-6.95,13.0201,237.7381
1984-07-18 14:30:00 UTC,2445900.104167,25.7150,-84.8850,0172,-13.10,-10.04,16.5049,232.5330
1984-07-18 15:00:00 UTC,2445900.125000,25.7150,-84.8850,0172,-13.23,-11.53,17.5492,228.9277
1984-07-18 15:30:00 UTC,2445900.145833,25.7150,-84.8850,0172,-16.80,-8.85,18.9885,242.2204
1984-07-18 16:00:00 UTC,2445900.166667,25.7150,-84.8850,0172,-17.32,-11.31,20.6857,236.8554
1984-07-18 16:30:00 UTC,2445900.187500,25.7150,-84.8850,0172,-19.25,-8.88,21.1995,245.2362
1984-07-18 17:00:00 UTC,2445900.208333,25.7150,-84.8850,0172,-19.51,-9.62,21.7528,243.7530
1984-07-18 17:30:00 UTC,2445900.229167,25.7150,-84.8850,0172,-20.95,-8.28,22.5269,248.4348
1984-07-18 18:00:00 UTC,2445900.250000,25.7150,-84.8850,0172,-20.77,-7.60,22.1168,249.9018
1984-07-18 18:30:00 UTC,2445900.270833,25.7150,-84.8850,0172,-20.38,-6.95,21.5325,251.1696
1984-07-18 19:00:00 UTC,2445900.291667,25.7150,-84.8850,0172,-20.56,-5.82,21.3679,254.1946
1984-07-18 19:30:00 UTC,2445900.312500,25.7150,-84.8850,0172,-21.02,-3.82,21.3643,259.7000
1984-07-18 20:00:00 UTC,2445900.333333,25.7150,-84.8850,0172,-19.90,-2.35,20.0383,263.2651
1984-07-18 20:30:00 UTC,2445900.354167,25.7150,-84.8850,0172,-20.00,0.18,20.0008,270.5157
1984-07-18 21:00:00 UTC,2445900.375000,25.7150,-84.8850,0172,-21.04,4.65,21.5477,282.4625
1984-07-18 21:30:00 UTC,2445900.395833,25.7150,-84.8850,0172,-19.74,4.86,20.3295,283.8312
1984-07-18 22:00:00 UTC,2445900.416667,25.7150,-84.8850,0172,-17.58,3.49,17.9231,281.2285
1984-07-18 22:30:00 UTC,2445900.437500,25.7150,-84.8850,0172,-17.45,4.81,18.1008,285.4106
1984-07-18 23:00:00 UTC,2445900.458333,25.7150,-84.8850,0172,-16.68,6.18,17.7881,290.3299
1984-07-18 23:30:00 UTC,2445900.479167,25.7150,-84.8850,0172,-16.05,5.11,16.8438,287.6604
1984-07-19 00:00:00 UTC,2445900.500000,25.7150,-84.8850,0172,-14.51,8.75,16.9441,301.0913
1984-07-19 00:30:00 UTC,2445900.520833,25.7150,-84.8850,0172,-12.51,8.22,14.9689,303.3079
1984-07-19 01:00:00 UTC,2445900.541667,25.7150,-84.8850,0172,-11.20,4.68,12.1385,292.6780
1984-07-19 01:30:00 UTC,2445900.562500,25.7150,-84.8850,0172,-11.86,4.84,12.8096,292.2001
1984-07-19 02:00:00 UTC,2445900.583333,25.7150,-84.8850,0172,-10.23,7.06,12.4297,304.6106
1984-07-19 02:30:00 UTC,2445900.604167,25.7150,-84.8850,0172,-11.06,10.27,15.0929,312.8789
1984-07-19 03:00:00 UTC,2445900.625000,25.7150,-84.8850,0172,-5.96,6.85,9.0799,318.9744
1984-07-19 03:30:00 UTC,2445900.645833,25.7150,-84.8850,0172,-5.64,7.81,9.6336,324.1650
1984-07-19 04:00:00 UTC,2445900.666667,25.7150,-84.8850,0172,-5.07,7.93,9.4122,327.4074
1984-07-19 04:30:00 UTC,2445900.687500,25.7150,-84.8850,0172,-4.75,8.25,9.5197,330.0685
1984-07-19 05:00:00 UTC,2445900.708333,25.7150,-84.8850,0172,-3.34,7.25,7.9824,335.2650
1984-07-19 05:30:00 UTC,2445900.729167,25.7150,-84.8850,0172,-3.06,7.65,8.2393,338.1986
1984-07-19 06:00:00 UTC,2445900.750000,25.7150,-84.8850,0172,-2.83,8.13,8.6085,340.8073
1984-07-19 06:30:00 UTC,2445900.770833,25.7150,-84.8850,0172,-2.58,8.54,8.9212,343.1900
1984-07-19 07:00:00 UTC,2445900.791667,25.7150,-84.8850,0172,-1.99,7.82,8.0692,345.7227
1984-07-19 07:30:00 UTC,2445900.812500,25.7150,-84.8850,0172,-1.40,6.44,6.5904,347.7352
1984-07-19 08:00:00 UTC,2445900.833333,25.7150,-84.8850,0172,-0.78,4.34,4.4095,349.8114
1984-07-19 08:30:00 UTC,2445900.854167,25.7150,-84.8850,0172,-0.85,3.62,3.7185,346.7859
1984-07-19 09:00:00 UTC,2445900.875000,25.7150,-84.8850,0172,-0.84,2.94,3.0576,344.0546
1984-07-19 09:30:00 UTC,2445900.895833,25.7150,-84.8850,0172,-0.98,2.46,2.6480,338.2790
1984-07-19 10:00:00 UTC,2445900.916667,25.7150,-84.8850,0172,-1.15,2.00,2.3071,330.1011
1984-07-19 10:30:00 UTC,2445900.937500,25.7150,-84.8850,0172,-1.40,1.61,2.1336,318.9909
1984-07-19 11:00:00 UTC,2445900.958333,25.7150,-84.8850,0172,-0.85,0.69,1.0948,309.0685
1984-07-19 11:30:00 UTC,2445900.979167,25.7150,-84.8850,0172,0.02,-0.12,0.1217,170.5377
1984-07-19 12:00:00 UTC,2445901.000000,25.7150,-84.8850,0172,-0.40,-0.01,0.4001,268.5679
1984-07-19 12:30:00 UTC,2445901.020833,25.7150,-84.8850,0172,-0.69,-0.12,0.7004,260.1342
1984-07-19 13:00:00 UTC,2445901.041667,25.7150,-84.8850,0172,-1.93,0.26,1.9474,277.6724
1984-07-19 13:30:00 UTC,2445901.062500,25.7150,-84.8850,0172,-4.27,1.21,4.4381,285.8213
1984-07-19 14:00:00 UTC,2445901.083333,25.7150,-84.8850,0172,-4.59,1.89,4.9639,292.3801
1984-07-19 14:30:00 UTC,2445901.104167,25.7150,-84.8850,0172,-6.30,2.45,6.7596,291.2505
1984-07-19 15:00:00 UTC,2445901.125000,25.7150,-84.8850,0172,-7.23,2.04,7.5123,285.7568
1984-07-19 15:30:00 UTC,2445901.145833,25.7150,-84.8850,0172,-6.47,1.69,6.6871,284.6389
1984-07-19 16:00:00 UTC,2445901.166667,25.7150,-84.8850,0172,-5.75,1.62,5.9739,285.7346
1984-07-19 16:30:00 UTC,2445901.187500,25.7150,-84.8850,0172,-8.31,2.61,8.7102,287.4364
1984-07-19 17:00:00 UTC,2445901.208333,25.7150,-84.8850,0172,-8.36,2.72,8.7914,288.0228
1984-07-19 17:30:00 UTC,2445901.229167,25.7150,-84.8850,0172,-8.24,3.15,8.8216,290.9209
1984-07-19 18:00:00 UTC,2445901.250000,25.7150,-84.8850,0172,-10.83,4.41,11.6935,292.1562
1984-07-19 18:30:00 UTC,2445901.270833,25.7150,-84.8850,0172,-10.44,4.89,11.5285,295.0980
1984-07-19 19:00:00 UTC,2445901.291667,25.7150,-84.8850,0172,-11.01,7.75,13.4641,305.1419
1984-07-19 19:30:00 UTC,2445901.312500,25.7150,-84.8850,0172,-11.48,8.67,14.3861,307.0611
1984-07-19 20:00:00 UTC,2445901.333333,25.7150,-84.8850,0172,-6.97,5.54,8.9035,308.4789
1984-07-19 20:30:00 UTC,2445901.354167,25.7150,-84.8850,0172,-6.06,4.91,7.7995,309.0155
1984-07-19 21:00:00 UTC,2445901.375000,25.7150,-84.8850,0172,-4.59,4.85,6.6776,316.5777
1984-07-19 21:30:00 UTC,2445901.395833,25.7150,-84.8850,0172,-3.68,4.00,5.4353,317.3860
1984-07-19 22:00:00 UTC,2445901.416667,25.7150,-84.8850,0172,-4.68,5.09,6.9145,317.4030
1984-07-19 22:30:00 UTC,2445901.437500,25.7150,-84.8850,0172,-4.81,5.50,7.3066,318.8288
1984-07-19 23:00:00 UTC,2445901.458333,25.7150,-84.8850,0172,-2.82,3.47,4.4714,320.8999
1984-07-19 23:30:00 UTC,2445901.479167,25.7150,-84.8850,0172,-1.70,2.93,3.3875,329.8775
1984-07-20 00:00:00 UTC,2445901.500000,25.7150,-84.8850,0172,-1.96,3.14,3.7015,328.0274
1984-07-20 00:30:00 UTC,2445901.520833,25.7150,-84.8850,0172,-2.31,3.44,4.1436,326.1182
1984-07-20 01:00:00 UTC,2445901.541667,25.7150,-84.8850,0172,-1.51,2.64,3.0413,330.2318
1984-07-20 01:30:00 UTC,2445901.562500,25.7150,-84.8850,0172,-1.05,2.20,2.4377,334.4861
1984-07-20 02:00:00 UTC,2445901.583333,25.7150,-84.8850,0172,-1.00,2.04,2.2719,333.8861
1984-07-20 02:30:00 UTC,2445901.604167,25.7150,-84.8850,0172,-1.03,1.49,1.8114,325.3448
1984-07-20 03:00:00 UTC,2445901.625000,25.7150,-84.8850,0172,-1.74,1.99,2.6434,318.8345
1984-07-20 03:30:00 UTC,2445901.645833,25.7150,-84.8850,0172,-1.72,2.28,2.8560,322.9696
1984-07-20 04:00:00 UTC,2445901.666667,25.7150,-84.8850,0172,-1.93,2.00,2.7794,316.0204
1984-07-20 04:30:00 UTC,2445901.687500,25.7150,-84.8850,0172,1.70,10.32,10.4591,9.3542
1984-07-20 05:00:00 UTC,2445901.708333,25.7150,-84.8850,0172,-19.83,-38.42,43.2357,207.3000
1984-07-20 05:30:00 UTC,2445901.729167,25.7150,-84.8850,0172,-21.03,-41.86,46.8457,206.6745
1984-07-20 06:00:00 UTC,2445901.750000,25.7150,-84.8850,0172,-22.23,-45.29,50.4515,206.1435
1984-07-20 06:30:00 UTC,2445901.770833,25.7150,-84.8850,0172,-5.12,-8.64,10.0431,210.6507
1984-07-20 07:00:00 UTC,2445901.791667,25.7150,-84.8850,0172,0.68,6.24,6.2769,6.2192
1984-07-20 07:30:00 UTC,2445901.812500,25.7150,-84.8850,0172,-0.39,2.86,2.8865,352.2348
1984-07-20 08:00:00 UTC,2445901.833333,25.7150,-84.8850,0172,0.02,1.63,1.6301,0.7030
1984-07-20 08:30:00 UTC,2445901.854167,25.7150,-84.8850,0172,-0.33,1.70,1.7317,349.0145
1984-07-20 09:00:00 UTC,2445901.875000,25.7150,-84.8850,0172,-0.20,0.92,0.9415,347.7352
1984-07-20 09:30:00 UTC,2445901.895833,25.7150,-84.8850,0172,-0.09,0.26,0.2751,340.9065
1984-07-20 10:00:00 UTC,2445901.916667,25.7150,-84.8850,0172,0.27,0.25,0.3680,47.2026
1984-07-20 10:30:00 UTC,2445901.937500,25.7150,-84.8850,0172,0.26,0.23,0.3471,48.5035
1984-07-20 11:00:00 UTC,2445901.958333,25.7150,-84.8850,0172,0.19,-0.11,0.2195,120.0686
1984-07-20 11:30:00 UTC,2445901.979167,25.7150,-84.8850,0172,0.31,-0.01,0.3102,91.8476
1984-07-20 12:00:00 UTC,2445902.000000,25.7150,-84.8850,0172,0.14,-0.03,0.1432,102.0947
1984-07-20 12:30:00 UTC,2445902.020833,25.7150,-84.8850,0172,-0.14,-0.16,0.2126,221.1859
1984-07-20 13:00:00 UTC,2445902.041667,25.7150,-84.8850,0172,0.19,-0.26,0.3220,143.8418
1984-07-20 13:30:00 UTC,2445902.062500,25.7150,-84.8850,0172,0.48,-0.37,0.6061,127.6262
1984-07-20 14:00:00 UTC,2445902.083333,25.7150,-84.8850,0172,0.38,-0.42,0.5664,137.8624
1984-07-20 14:30:00 UTC,2445902.104167,25.7150,-84.8850,0172,0.31,-0.45,0.5464,145.4375
1984-07-20 15:00:00 UTC,2445902.125000,25.7150,-84.8850,0172,0.17,-0.31,0.3536,151.2602
1984-07-20 15:30:00 UTC,2445902.145833,25.7150,-84.8850,0172,-0.18,-0.38,0.4205,205.3462
1984-07-20 16:00:00 UTC,2445902.166667,25.7150,-84.8850,0172,-1.92,0.76,2.0649,291.5953
1984-07-20 16:30:00 UTC,2445902.187500,25.7150,-84.8850,0172,-2.10,1.26,2.4490,300.9637
1984-07-20 17:00:00 UTC,2445902.208333,25.7150,-84.8850,0172,-1.37,0.98,1.6844,305.5772
1984-07-20 17:30:00 UTC,2445902.229167,25.7150,-84.8850,0172,-0.79,0.76,1.0962,313.8912
1984-07-20 18:00:00 UTC,2445902.250000,25.7150,-84.8850,0172,-0.30,0.21,0.3662,304.9920
1984-07-20 18:30:00 UTC,2445902.270833,25.7150,-84.8850,0172,-0.50,0.47,0.6862,313.2285
1984-07-20 19:00:00 UTC,2445902.291667,25.7150,-84.8850,0172,-0.45,0.05,0.4528,276.3402
1984-07-20 19:30:00 UTC,2445902.312500,25.7150,-84.8850,0172,-1.02,0.54,1.1541,297.8973
1984-07-20 20:00:00 UTC,2445902.333333,25.7150,-84.8850,0172,-2.60,3.89,4.6789,326.2420
1984-07-20 20:30:00 UTC,2445902.354167,25.7150,-84.8850,0172,-2.95,5.70,6.4181,332.6364
1984-07-20 21:00:00 UTC,2445902.375000,25.7150,-84.8850,0172,-1.79,5.19,5.4900,340.9710
1984-07-20 21:30:00 UTC,2445902.395833,25.7150,-84.8850,0172,-0.87,4.79,4.8684,349.7057
1984-07-20 22:00:00 UTC,2445902.416667,25.7150,-84.8850,0172,-0.51,4.78,4.8071,353.9099
1984-07-20 22:30:00 UTC,2445902.437500,25.7150,-84.8850,0172,-0.04,4.80,4.8002,359.5226
1984-07-20 23:00:00 UTC,2445902.458333,25.7150,-84.8850,0172,1.39,5.62,5.7893,13.8922
1984-07-20 23:30:00 UTC,2445902.479167,25.7150,-84.8850,0172,2.36,5.47,5.9574,23.3375
1984-07-21 00:00:00 UTC,2445902.500000,25.7150,-84.8850,0172,3.59,6.19,7.1557,30.1123
1984-07-21 00:30:00 UTC,2445902.520833,25.7150,-84.8850,0172,3.48,4.72,5.8642,36.4009
1984-07-21 01:00:00 UTC,2445902.541667,25.7150,-84.8850,0172,2.48,2.48,3.5072,45.0000
1984-07-21 01:30:00 UTC,2445902.562500,25.7150,-84.8850,0172,16.23,6.68,17.5509,67.6287
1984-07-21 02:00:00 UTC,2445902.583333,25.7150,-84.8850,0172,10.79,4.59,11.7257,66.9554
1984-07-21 02:30:00 UTC,2445902.604167,25.7150,-84.8850,0172,5.35,2.49,5.9011,65.0418
1984-07-21 03:00:00 UTC,2445902.625000,25.7150,-84.8850,0172,-0.09,0.39,0.4002,347.0054
1984-07-21 03:30:00 UTC,2445902.645833,25.7150,-84.8850,0172,-5.53,-1.70,5.7854,252.9118
1984-07-21 04:00:00 UTC,2445902.666667,25.7150,-84.8850,0172,4.80,2.22,5.2885,65.1795
1984-07-21 04:30:00 UTC,2445902.687500,25.7150,-84.8850,0172,2.27,1.64,2.8004,54.1531
1984-07-21 05:00:00 UTC,2445902.708333,25.7150,-84.8850,0172,2.59,1.59,3.0391,58.4543
1984-07-21 05:30:00 UTC,2445902.729167,25.7150,-84.8850,0172,2.47,1.44,2.8591,59.7580
1984-07-21 06:00:00 UTC,2445902.750000,25.7150,-84.8850,0172,2.78,0.75,2.8794,74.9019
1984-07-21 06:30:00 UTC,2445902.770833,25.7150,-84.8850,0172,1.37,0.46,1.4452,71.4397
1984-07-21 07:00:00 UTC,2445902.791667,25.7150,-84.8850,0172,2.87,-1.13,3.0844,111.4910
1984-07-21 07:30:00 UTC,2445902.812500,25.7150,-84.8850,0172,2.64,-1.01,2.8266,110.9356
1984-07-21 08:00:00 UTC,2445902.833333,25.7150,-84.8850,0172,2.27,-0.34,2.2953,98.5184
1984-07-21 08:30:00 UTC,2445902.854167,25.7150,-84.8850,0172,2.04,-0.06,2.0409,91.6847
1984-07-21 09:00:00 UTC,2445902.875000,25.7150,-84.8850,0172,4.34,-1.29,4.5277,106.5538
1984-07-21 09:30:00 UTC,2445902.895833,25.7150,-84.8850,0172,6.40,-2.43,6.8458,110.7911
1984-07-21 10:00:00 UTC,2445902.916667,25.7150,-84.8850,0172,3.89,-1.17,4.0621,106.7398
1984-07-21 10:30:00 UTC,2445902.937500,25.7150,-84.8850,0172,2.49,-0.53,2.5458,102.0162
1984-07-21 11:00:00 UTC,2445902.958333,25.7150,-84.8850,0172,1.84,-0.34,1.8711,100.4692
1984-07-21 11:30:00 UTC,2445902.979167,25.7150,-84.8850,0172,1.45,-0.30,1.4807,101.6894
1984-07-21 12:00:00 UTC,2445903.000000,25.7150,-84.8850,0172,1.45,-0.33,1.4871,102.8213
1984-07-21 12:30:00 UTC,2445903.020833,25.7150,-84.8850,0172,1.39,-0.35,1.4334,104.1332
1984-07-21 13:00:00 UTC,2445903.041667,25.7150,-84.8850,0172,1.81,-0.41,1.8559,102.7632
1984-07-21 13:30:00 UTC,2445903.062500,25.7150,-84.8850,0172,1.23,-0.18,1.2431,98.3256
1984-07-21 14:00:00 UTC,2445903.083333,25.7150,-84.8850,0172,1.76,0.05,1.7607,88.3727
1984-07-21 14:30:00 UTC,2445903.104167,25.7150,-84.8850,0172,1.30,-0.25,1.3238,100.8855
1984-07-21 15:00:00 UTC,2445903.125000,25.7150,-84.8850,0172,0.89,-0.13,0.8994,98.3103
1984-07-21 15:30:00 UTC,2445903.145833,25.7150,-84.8850,0172,1.70,-0.39,1.7442,102.9207
1984-07-21 16:00:00 UTC,2445903.166667,25.7150,-84.8850,0172,2.40,-0.58,2.4691,103.5860
1984-07-21 16:30:00 UTC,2445903.187500,25.7150,-84.8850,0172,2.20,-0.99,2.4125,114.2277
1984-07-21 17:00:00 UTC,2445903.208333,25.7150,-84.8850,0172,2.02,-0.68,2.1314,108.6050
1984-07-21 17:30:00 UTC,2445903.229167,25.7150,-84.8850,0172,2.61,-0.42,2.6436,99.1416
1984-07-21 18:00:00 UTC,2445903.250000,25.7150,-84.8850,0172,2.51,-0.55,2.5696,102.3595
1984-07-21 18:30:00 UTC,2445903.270833,25.7150,-84.8850,0172,1.99,-0.44,2.0381,102.4678
1984-07-21 19:00:00 UTC,2445903.291667,25.7150,-84.8850,0172,1.47,-0.17,1.4798,96.5967
1984-07-21 19:30:00 UTC,2445903.312500,25.7150,-84.8850,0172,1.21,0.16,1.2205,82.4674
1984-07-21 20:00:00 UTC,2445903.333333,25.7150,-84.8850,0172,2.42,0.78,2.5426,72.1351
1984-07-21 20:30:00 UTC,2445903.354167,25.7150,-84.8850,0172,2.89,0.88,3.0210,73.0646
1984-07-21 21:00:00 UTC,2445903.375000,25.7150,-84.8850,0172,2.34,0.99,2.5408,67.0679
1984-07-21 21:30:00 UTC,2445903.395833,25.7150,-84.8850,0172,2.25,1.31,2.6036,59.7911
1984-07-21 22:00:00 UTC,2445903.416667,25.7150,-84.8850,0172,2.48,1.72,3.0181,55.2568
1984-07-21 22:30:00 UTC,2445903.437500,25.7150,-84.8850,0172,2.53,2.02,3.2375,51.3955
1984-07-21 23:00:00 UTC,2445903.458333,25.7150,-84.8850,0172,2.07,1.91,2.8166,47.3021
1984-07-21 23:30:00 UTC,2445903.479167,25.7150,-84.8850,0172,2.87,2.61,3.8793,47.7164
1984-07-22 00:00:00 UTC,2445903.500000,25.7150,-84.8850,0172,3.42,2.32,4.1327,55.8485
1984-07-22 00:30:00 UTC,2445903.520833,25.7150,-84.8850,0172,3.77,2.41,4.4745,57.4110
1984-07-22 01:00:00 UTC,2445903.541667,25.7150,-84.8850,0172,4.25,1.86,4.6392,66.3635
1984-07-22 01:30:00 UTC,2445903.562500,25.7150,-84.8850,0172,4.34,1.78,4.6908,67.6996
1984-07-22 02:00:00 UTC,2445903.583333,25.7150,-84.8850,0172,3.88,2.04,4.3836,62.2658
1984-07-22 02:30:00 UTC,2445903.604167,25.7150,-84.8850,0172,3.27,2.01,3.8384,58.4218
1984-07-22 03:00:00 UTC,2445903.625000,25.7150,-84.8850,0172,3.36,2.11,3.9676,57.8722
1984-07-22 03:30:00 UTC,2445903.645833,25.7150,-84.8850,0172,3.24,2.17,3.8996,56.1877
1984-07-22 04:00:00 UTC,2445903.666667,25.7150,-84.8850,0172,3.12,2.23,3.8350,54.4450
1984-07-22 04:30:00 UTC,2445903.687500,25.7150,-84.8850,0172,2.99,2.31,3.7784,52.3112
1984-07-22 05:00:00 UTC,2445903.708333,25.7150,-84.8850,0172,2.72,2.48,3.6809,47.6425
1984-07-22 05:30:00 UTC,2445903.729167,25.7150,-84.8850,0172,2.87,2.98,4.1373,43.9228
1984-07-22 06:00:00 UTC,2445903.750000,25.7150,-84.8850,0172,3.33,3.39,4.7519,44.4884
1984-07-22 06:30:00 UTC,2445903.770833,25.7150,-84.8850,0172,4.87,4.41,6.5700,47.8378
1984-07-22 07:00:00 UTC,2445903.791667,25.7150,-84.8850,0172,5.21,4.34,6.7808,50.2052
1984-07-22 07:30:00 UTC,2445903.812500,25.7150,-84.8850,0172,5.98,4.59,7.5385,52.4916
1984-07-22 08:00:00 UTC,2445903.833333,25.7150,-84.8850,0172,6.76,4.85,8.3199,54.3422
1984-07-22 08:30:00 UTC,2445903.854167,25.7150,-84.8850,0172,7.55,5.07,9.0944,56.1177
1984-07-22 09:00:00 UTC,2445903.875000,25.7150,-84.8850,0172,8.48,5.16,9.9265,58.6799
1984-07-22 09:30:00 UTC,2445903.895833,25.7150,-84.8850,0172,9.02,4.42,10.0447,63.8941
1984-07-22 10:00:00 UTC,2445903.916667,25.7150,-84.8850,0172,8.36,4.06,9.2937,64.0967
1984-07-22 10:30:00 UTC,2445903.937500,25.7150,-84.8850,0172,8.78,3.77,9.5552,66.7620
1984-07-22 11:00:00 UTC,2445903.958333,25.7150,-84.8850,0172,9.44,3.73,10.1502,68.4397
1984-07-22 11:30:00 UTC,2445903.979167,25.7150,-84.8850,0172,9.55,3.35,10.1205,70.6699
1984-07-22 12:00:00 UTC,2445904.000000,25.7150,-84.8850,0172,12.21,3.52,12.7073,73.9183
1984-07-22 12:30:00 UTC,2445904.020833,25.7150,-84.8850,0172,13.15,3.19,13.5314,76.3643
1984-07-22 13:00:00 UTC,2445904.041667,25.7150,-84.8850,0172,14.07,2.85,14.3557,78.5492
1984-07-22 13:30:00 UTC,2445904.062500,25.7150,-84.8850,0172,14.99,2.51,15.1987,80.4943
1984-07-22 14:00:00 UTC,2445904.083333,25.7150,-84.8850,0172,15.90,2.17,16.0474,82.2284
1984-07-22 14:30:00 UTC,2445904.104167,25.7150,-84.8850,0172,16.74,1.83,16.8397,83.7613
1984-07-22 15:00:00 UTC,2445904.125000,25.7150,-84.8850,0172,16.15,1.44,16.2141,84.9047
1984-07-22 15:30:00 UTC,2445904.145833,25.7150,-84.8850,0172,12.15,0.95,12.1871,85.5292
1984-07-22 16:00:00 UTC,2445904.166667,25.7150,-84.8850,0172,8.48,0.88,8.5255,84.0754
1984-07-22 16:30:00 UTC,2445904.187500,25.7150,-84.8850,0172,4.97,1.62,5.2274,71.9463
1984-07-22 17:00:00 UTC,2445904.208333,25.7150,-84.8850,0172,4.17,2.57,4.8983,58.3542
1984-07-22 17:30:00 UTC,2445904.229167,25.7150,-84.8850,0172,4.32,2.72,5.1050,57.8043
1984-07-22 18:00:00 UTC,2445904.250000,25.7150,-84.8850,0172,2.91,3.53,4.5748,39.5009
1984-07-22 18:30:00 UTC,2445904.270833,25.7150,-84.8850,0172,4.00,3.03,5.0181,52.8561
1984-07-22 19:00:00 UTC,2445904.291667,25.7150,-84.8850,0172,5.15,2.49,5.7204,64.1964
1984-07-22 19:30:00 UTC,2445904.312500,25.7150,-84.8850,0172,6.30,1.98,6.6038,72.5528
1984-07-22 20:00:00 UTC,2445904.333333,25.7150,-84.8850,0172,7.33,2.17,7.6445,73.5089
1984-07-22 20:30:00 UTC,2445904.354167,25.7150,-84.8850,0172,8.01,4.23,9.0583,62.1619
1984-07-22 21:00:00 UTC,2445904.375000,25.7150,-84.8850,0172,8.28,5.53,9.9569,56.2621
1984-07-22 21:30:00 UTC,2445904.395833,25.7150,-84.8850,0172,7.75,7.76,10.9672,44.9631
1984-07-22 22:00:00 UTC,2445904.416667,25.7150,-84.8850,0172,9.77,7.79,12.4955,51.4333
1984-07-22 22:30:00 UTC,2445904.437500,25.7150,-84.8850,0172,11.92,7.62,14.1475,57.4108
1984-07-22 23:00:00 UTC,2445904.458333,25.7150,-84.8850,0172,15.48,7.91,17.3839,62.9338
1984-07-22 23:30:00 UTC,2445904.479167,25.7150,-84.8850,0172,15.76,7.67,17.5273,64.0490
1984-07-23 00:00:00 UTC,2445904.500000,25.7150,-84.8850,0172,14.06,6.96,15.6884,63.6636
1984-07-23 00:30:00 UTC,2445904.520833,25.7150,-84.8850,0172,12.29,6.23,13.7789,63.1188
1984-07-23 01:00:00 UTC,2445904.541667,25.7150,-84.8850,0172,10.51,5.50,11.8621,62.3764
1984-07-23 01:30:00 UTC,2445904.562500,25.7150,-84.8850,0172,8.83,4.86,10.0791,61.1718
1984-07-23 02:00:00 UTC,2445904.583333,25.7150,-84.8850,0172,7.70,4.79,9.0683,58.1152
1984-07-23 02:30:00 UTC,2445904.604167,25.7150,-84.8850,0172,6.35,3.88,7.4416,58.5741
1984-07-23 03:00:00 UTC,2445904.625000,25.7150,-84.8850,0172,4.28,2.77,5.0982,57.0892
1984-07-23 03:30:00 UTC,2445904.645833,25.7150,-84.8850,0172,3.66,3.19,4.8551,48.9251
1984-07-23 04:00:00 UTC,2445904.666667,25.7150,-84.8850,0172,5.05,5.41,7.4007,43.0288
1984-07-23 04:30:00 UTC,2445904.687500,25.7150,-84.8850,0172,4.80,6.04,7.7150,38.4742
1984-07-23 05:00:00 UTC,2445904.708333,25.7150,-84.8850,0172,5.48,5.19,7.5476,46.5569
1984-07-23 05:30:00 UTC,2445904.729167,25.7150,-84.8850,0172,4.21,4.34,6.0465,44.1289
1984-07-23 06:00:00 UTC,2445904.750000,25.7150,-84.8850,0172,2.64,3.46,4.3521,37.3438
1984-07-23 06:30:00 UTC,2445904.770833,25.7150,-84.8850,0172,1.45,3.23,3.5405,24.1761
1984-07-23 07:00:00 UTC,2445904.791667,25.7150,-84.8850,0172,1.77,5.02,5.3229,19.4221
1984-07-23 07:30:00 UTC,2445904.812500,25.7150,-84.8850,0172,2.62,6.63,7.1289,21.5626
1984-07-23 08:00:00 UTC,2445904.833333,25.7150,-84.8850,0172,1.87,6.46,6.7252,16.1443
1984-07-23 08:30:00 UTC,2445904.854167,25.7150,-84.8850,0172,0.59,5.83,5.8598,5.7787
1984-07-23 09:00:00 UTC,2445904.875000,25.7150,-84.8850,0172,0.66,6.98,7.0111,5.4016
1984-07-23 09:30:00 UTC,2445904.895833,25.7150,-84.8850,0172,1.65,8.57,8.7274,10.8979
1984-07-23 10:00:00 UTC,2445904.916667,25.7150,-84.8850,0172,3.09,9.87,10.3424,17.3838
1984-07-23 10:30:00 UTC,2445904.937500,25.7150,-84.8850,0172,2.87,8.67,9.1327,18.3159
1984-07-23 11:00:00 UTC,2445904.958333,25.7150,-84.8850,0172,3.28,8.43,9.0456,21.2603
1984-07-23 11:30:00 UTC,2445904.979167,25.7150,-84.8850,0172,3.66,8.13,8.9159,24.2365
1984-07-23 12:00:00 UTC,2445905.000000,25.7150,-84.8850,0172,4.01,7.79,8.7615,27.2377
1984-07-23 12:30:00 UTC,2445905.020833,25.7150,-84.8850,0172,4.36,7.46,8.6407,30.3042
1984-07-23 13:00:00 UTC,2445905.041667,25.7150,-84.8850,0172,5.14,7.60,9.1749,34.0711
1984-07-23 13:30:00 UTC,2445905.062500,25.7150,-84.8850,0172,6.79,8.80,11.1150,37.6534
1984-07-23 14:00:00 UTC,2445905.083333,25.7150,-84.8850,0172,6.97,8.63,11.0931,38.9260
1984-07-23 14:30:00 UTC,2445905.104167,25.7150,-84.8850,0172,6.99,8.94,11.3483,38.0211
1984-07-23 15:00:00 UTC,2445905.125000,25.7150,-84.8850,0172,5.81,7.88,9.7903,36.4017
1984-07-23 15:30:00 UTC,2445905.145833,25.7150,-84.8850,0172,5.45,7.12,8.9664,37.4322
1984-07-23 16:00:00 UTC,2445905.166667,25.7150,-84.8850,0172,5.77,8.28,10.0921,34.8711
1984-07-23 16:30:00 UTC,2445905.187500,25.7150,-84.8850,0172,5.71,10.23,11.7157,29.1686
1984-07-23 17:00:00 UTC,2445905.208333,25.7150,-84.8850,0172,7.41,9.63,12.1509,37.5772
1984-07-23 17:30:00 UTC,2445905.229167,25.7150,-84.8850,0172,9.03,11.12,14.3246,39.0783
1984-07-23 18:00:00 UTC,2445905.250000,25.7150,-84.8850,0172,10.71,12.66,16.5825,40.2303
1984-07-23 18:30:00 UTC,2445905.270833,25.7150,-84.8850,0172,11.09,12.19,16.4798,42.2947
1984-07-23 19:00:00 UTC,2445905.291667,25.7150,-84.8850,0172,10.45,11.05,15.2087,43.4015
1984-07-23 19:30:00 UTC,2445905.312500,25.7150,-84.8850,0172,11.47,14.11,18.1839,39.1076
1984-07-23 20:00:00 UTC,2445905.333333,25.7150,-84.8850,0172,11.68,14.62,18.7127,38.6216
1984-07-23 20:30:00 UTC,2445905.354167,25.7150,-84.8850,0172,12.50,14.82,19.3877,40.1461
1984-07-23 21:00:00 UTC,2445905.375000,25.7150,-84.8850,0172,12.04,15.93,19.9681,37.0822
1984-07-23 21:30:00 UTC,2445905.395833,25.7150,-84.8850,0172,13.35,14.32,19.5777,42.9923
1984-07-23 22:00:00 UTC,2445905.416667,25.7150,-84.8850,0172,12.87,14.85,19.6509,40.9144
1984-07-23 22:30:00 UTC,2445905.437500,25.7150,-84.8850,0172,12.74,17.31,21.4929,36.3527
1984-07-23 23:00:00 UTC,2445905.458333,25.7150,-84.8850,0172,12.90,15.08,19.8448,40.5449
1984-07-23 23:30:00 UTC,2445905.479167,25.7150,-84.8850,0172,12.25,17.19,21.1083,35.4746
1984-07-24 00:00:00 UTC,2445905.500000,25.7150,-84.8850,0172,12.44,19.67,23.2736,32.3107